Location: Burland Observatory
(39.4088°N, 105.4217°W)
Time: 03:53:58
(UTC-07:00)

S-56A Canister/Altair - All Passes

Search period start: 09 December 2019 00:00
Search period end: 19 December 2019 00:00
Orbit: 633 x 2500 km, 38.9° (Epoch: 08 December)

Date Brightness Start Highest point End Pass type
(mag) Time Alt. Az. Time Alt. Az. Time Alt. Az.
09 Dec - 07:15:40 10° SSE 07:23:26 18° SE 07:31:58 10° E daylight
09 Dec - 09:14:39 10° SW 09:27:37 50° SE 09:41:40 10° ENE daylight
09 Dec - 11:18:59 10° WSW 11:33:56 81° SSE 11:47:58 10° E daylight
09 Dec - 13:25:48 10° W 13:41:08 87° S 13:53:19 10° E daylight
09 Dec - 15:33:22 10° WNW 15:47:15 61° SSW 15:57:11 10° SE daylight
09 Dec - 17:42:14 10° W 17:50:52 23° SW 17:57:35 10° S visible
10 Dec - 06:44:26 10° SSE 06:50:25 15° SE 06:56:56 10° E visible
10 Dec - 08:41:55 10° SSW 08:54:12 45° SE 09:08:02 10° ENE daylight
10 Dec - 10:45:40 10° WSW 11:00:15 78° SSE 11:14:42 10° E daylight
10 Dec - 12:52:07 10° W 13:07:30 88° S 13:20:20 10° E daylight
10 Dec - 14:59:31 10° WNW 15:13:59 66° SSW 15:24:36 10° SE daylight
10 Dec - 17:07:58 10° W 17:18:04 28° SW 17:25:45 10° S visible
11 Dec - 06:14:30 10° SE 06:17:29 11° ESE 06:20:37 10° ESE visible
11 Dec - 08:09:18 10° SSW 08:20:51 41° SE 08:34:18 10° ENE daylight
11 Dec - 10:12:27 10° WSW 10:26:34 75° SSE 10:41:19 10° ENE daylight
11 Dec - 12:18:30 10° W 12:33:49 88° S 12:47:15 10° E daylight
11 Dec - 14:25:43 10° WNW 14:40:36 71° SSW 14:51:55 10° ESE daylight
11 Dec - 16:33:49 10° W 16:45:10 33° SW 16:53:43 10° SSE daylight
12 Dec - 07:36:51 10° SSW 07:47:36 36° SE 08:00:26 10° ENE daylight
12 Dec - 09:39:21 10° WSW 09:52:56 71° SSE 10:07:51 10° ENE daylight
12 Dec - 11:45:00 10° W 12:00:04 88° S 12:14:05 10° E daylight
12 Dec - 13:51:58 10° WNW 14:07:07 75° SSW 14:19:07 10° ESE daylight
12 Dec - 15:59:47 10° WNW 16:12:09 38° SW 16:21:32 10° SSE daylight
13 Dec - 07:04:34 10° S 07:14:26 32° SE 07:26:26 10° E daylight
13 Dec - 09:06:22 10° SW 09:19:20 67° SSE 09:34:19 10° ENE daylight
13 Dec - 11:11:34 10° W 11:26:19 88° S 11:40:48 10° E daylight
13 Dec - 13:18:18 10° W 13:33:34 78° SSW 13:46:14 10° ESE daylight
13 Dec - 15:25:49 10° WNW 15:39:03 44° SW 15:49:12 10° SSE daylight
13 Dec - 17:38:24 10° WSW 17:41:58 12° WSW 17:45:14 10° SW visible
14 Dec - 06:32:27 10° S 06:41:22 27° SE 06:52:17 10° E visible
14 Dec - 08:33:30 10° SW 08:45:49 63° SSE 09:00:41 10° ENE daylight
14 Dec - 10:38:15 10° W 10:52:33 87° S 11:07:26 10° E daylight
14 Dec - 12:44:41 10° W 12:59:56 81° SSW 13:13:14 10° ESE daylight
14 Dec - 14:51:56 10° WNW 15:05:50 49° SW 15:16:44 10° SSE daylight
14 Dec - 17:02:36 10° W 17:09:10 16° SW 17:14:53 10° SSW visible
15 Dec - 06:00:33 10° S 06:08:24 23° SE 06:17:57 10° E visible
15 Dec - 08:00:46 10° SW 08:12:22 58° SSE 08:26:58 10° ENE daylight
15 Dec - 10:05:01 10° WSW 10:18:49 86° S 10:33:59 10° E daylight
15 Dec - 12:11:09 10° W 12:26:14 84° SSW 12:40:07 10° ESE daylight
15 Dec - 14:18:08 10° WNW 14:32:31 54° SW 14:44:09 10° SE daylight
15 Dec - 16:27:42 10° W 16:36:18 20° SW 16:43:36 10° SSW daylight
16 Dec - 05:28:57 10° SSE 05:35:31 18° SE 05:43:22 10° E visible
16 Dec - 07:28:08 10° SW 07:39:03 53° SE 07:53:10 10° ENE daylight
16 Dec - 09:31:55 10° WSW 09:45:07 84° SSE 10:00:26 10° E daylight
16 Dec - 11:37:43 10° W 11:52:31 85° S 12:06:54 10° ESE daylight
16 Dec - 13:44:25 10° WNW 13:59:06 59° SSW 14:11:26 10° SE daylight
16 Dec - 15:53:12 10° W 16:03:22 24° SW 16:11:53 10° S daylight
17 Dec - 04:57:50 10° SSE 05:02:44 14° ESE 05:08:21 10° E visible
17 Dec - 06:55:38 10° SSW 07:05:48 48° SE 07:19:19 10° ENE daylight
17 Dec - 08:58:54 10° WSW 09:11:29 81° SSE 09:26:48 10° E daylight
17 Dec - 11:04:22 10° W 11:18:46 87° S 11:33:34 10° E daylight
17 Dec - 13:10:47 10° WNW 13:25:36 63° SSW 13:38:36 10° SE daylight
17 Dec - 15:18:56 10° W 15:30:18 28° SW 15:39:53 10° S daylight
18 Dec - 04:28:21 10° SE 04:30:01 10° ESE 04:31:45 10° ESE visible
18 Dec - 06:23:15 10° SSW 06:32:40 42° SE 06:45:23 10° ENE visible
18 Dec - 08:26:00 10° WSW 08:37:55 78° SSE 08:53:06 10° E daylight
18 Dec - 10:31:06 10° W 10:45:01 88° S 11:00:08 10° E daylight
18 Dec - 12:37:15 10° WNW 12:52:02 67° SSW 13:05:39 10° SE daylight
18 Dec - 14:44:52 10° W 14:57:09 32° SW 15:07:40 10° SSE daylight
